Regional Weather Roundup
Issued by NWS Northern Indiana

Home | Current Version | Previous Version | Graphics & Text | Print | Product List | Glossary On
Versions: 1 2 3 4 5 6 7 8 9 10 11 12 13 14 15 16 17 18 19 20 21 22 23 24 25 26 27 28 29 30 31 32 33 34 35 36 37 38 39 40 41 42 43 44 45 46 47 48 49 50
000
ASUS43 KIWX 060900
RWRIWX

KIWX WEATHER ROUNDUP
NATIONAL WEATHER SERVICE NORTHERN INDIANA
400 AM EST SAT FEB 06 2016

NOTE: "FAIR" INDICATES FEW OR NO CLOUDS BELOW 12,000 FEET WITH NO
SIGNIFICANT WEATHER AND/OR OBSTRUCTIONS TO VISIBILITY.

* THESE STATIONS ARE NOT UNDER NWS QUALITY CONTROL. THEY ALSO MAY NOT
  REPORT WEATHER SUCH AS PRECIPITATION OR FOG.

INZ001>027-061000-
NORTHERN INDIANA

CITY           SKY/WX    TMP DP  RH WIND       PRES   REMARKS
SOUTH BEND     CLEAR     20  18  92 S6        30.30F FOG     WCI  12
GOSHEN         CLEAR     23  20  88 SW5       30.30S FOG     WCI  17
ANGOLA*        CLEAR     21  19  93 CALM      30.27F
FORT WAYNE     PTCLDY    27  24  89 W5        30.31F WCI  22
PERU/GRISSOM   CLEAR     22  22  98 SW3       30.30S FOG

$$
INZ028>050-061000-
CENTRAL INDIANA

CITY           SKY/WX    TMP DP  RH WIND       PRES   REMARKS
LAFAYETTE      CLEAR     19  17  92 CALM      30.33S FOG
KOKOMO*        CLOUDY    21  18  86 CALM      30.32S
MUNCIE*        CLOUDY    24  20  84 SW5       30.32S FOG     WCI  18
INDIANAPOLIS   CLOUDY    22  19  89 CALM      30.32R

$$
MIZ043>046-050>051-056>058-064>065-071>073-077>080-061000-
SOUTHWEST LOWER MICHIGAN

CITY           SKY/WX    TMP DP  RH WIND       PRES   REMARKS
BATTLE CREEK   CLEAR     21  18  88 SW7       30.26F WCI  12
BENTON HARBOR  MOCLDY    27  23  85 S6        30.28F FOG     WCI  20
COLDWATER*     CLOUDY    24  22  93 SW5       30.28S WCI  18
HILLSDALE*     MOCLDY    23  21  92 W3        30.25F
HOLLAND        CLEAR     19  16  88 S5        30.25F WCI  12
GRAND RAPIDS   PTCLDY    21  18  88 S5        30.24F WCI  15
KALAMAZOO      CLEAR     22  18  85 SW7       30.27S WCI  13
STURGIS*       CLEAR     20  19  96 SW5       30.28S FOG     WCI  13
THREE RIVERS*  FAIR      24  22  93 SW7       30.28F FOG     WCI  16

$$
OHZ001>008-015>018-024>025-061000-
NORTHWEST OHIO

CITY           SKY/WX    TMP DP  RH WIND       PRES   REMARKS
DEFIANCE       CLOUDY    27  22  81 NW7       30.31S WCI  19
FINDLAY        CLOUDY    26  22  84 SW6       30.29S WCI  19
TOLEDO EXPRESS CLEAR     26  21  81 W7        30.30R WCI  18
TOLEDO METCALF CLOUDY    25  22  88 SW5       30.31S FOG     WCI  19
LIMA           CLOUDY    25  22  88 SW5       30.29F WCI  19

$$
AND FOR LAKE MICHIGAN COASTAL AND OPEN LAKE BUOY OBSERVATIONS

STATION/POSITION TEMP    WIND        PRES    VSBY  WAVE
                 AIR SEA DIR/SP/G                  HT/PER
                 (F)     (DEG/KT/KT) (MB)    (MI)  (FT/S)
CALUMET HARBOR    26     230/  5/  6 1025.5F
MICHIGAN CITY     25     180/  7/  9   N/A
BURNS HARBOR      26     210/  8/  9 1026.8S
SAINT JOSEPH      32     210/ 14/ 15 1026.4S

$$
&&



USA.gov is the U.S. government's official web portal to all federal, state and local government web resources and services.